Location: Unspecified
(48.5539°N, 71.6350°W)
Time: 19:21:22
(UTC-05:00)

ISS - Pass Details

Date: 01 February 2019
Orbit: 403 x 411 km, 51.6° (Epoch: 17 February)

Event Time Altitude Azimuth Distance (km) Brightness Sun altitude
Rises 20:44:07 0° 289° (WNW) 2,343 0.9 -39.3°
Enters shadow 20:44:18 - 289° (WNW) 2,272 0.9 -39.3°
Reaches altitude 10° 20:46:20 10° 279° (W) 1,479 - -39.7°
Maximum altitude 20:49:20 32° 215° (SW) 738 - -40.1°
Drops below altitude 10° 20:52:19 10° 151° (SSE) 1,475 - -40.6°
Sets 20:54:31 0° 140° (SE) 2,333 - -40.9°
